ARIRANG-2 (KOMPSAT-2)

Last updated on Fri Oct 04 2024 00:02:25 GMT+0000 (Coordinated Universal Time)

1 29268U 06031A 24277.61029042 .00002055 00000+0 40201-3 0 9994 2 29268 97.8530 120.8898 0013384 242.8539 184.3853 14.63803914970501
UTC large
Height (km)
Speed (km/s)
/
Latitude / Longitude
Inclination (degrees)
Orbital Period (minutes)
Azimuth
Elevation
Range (km)
Doppler Factor

Next 0 passes for location: London (51.5072 / 0.1276)

Sorry there are no passes over London.